logo tempoitalia

Diretta Meteo Olathe New Century Aircenter, Stati Uniti (USA)lunedì 31 agosto ore 00:53

Mappa
Sereno 27 °C Sereno 24 Ore: T.min 24 T.max 38
Ponente Sud Km/h 11.1 Punto di rugiada: 16 °C Umidità: 50% Visibilità: 10 Km
Il sole sorge alle: 06:47 Il sole tramonta alle: 19:51
31 Agosto 2026 00:53 tempo osservato: Sereno Sereno 27 50 1012 vento: Nord S 11.1
30 Agosto 2026 23:53 tempo osservato: Sereno Sereno 28 48 1012 vento: Nord S 16.7
30 Agosto 2026 22:53 tempo osservato: Sereno Sereno 28 51 1012 vento: Nord S 16.7
30 Agosto 2026 21:53 tempo osservato: Sereno Sereno 28 51 1012 vento: Nord S/SE 16.7
30 Agosto 2026 20:53 tempo osservato: Sereno Sereno 29 48 1012 vento: Nord S/SE 14.8
30 Agosto 2026 19:53 tempo osservato: Sereno Sereno 31 43 1011 vento: Nord S 11.1
30 Agosto 2026 18:53 tempo osservato: Sereno Sereno 35 34 1011 vento: Nord S 20.3
30 Agosto 2026 17:53 tempo osservato: Sereno Sereno 37 28 1010 vento: Nord S 24
30 Agosto 2026 16:53 tempo osservato: Sereno Sereno 38 29 1011 vento: Nord S 24
30 Agosto 2026 15:53 tempo osservato: Sereno Sereno 37 30 1011 vento: Nord S 29.6
30 Agosto 2026 14:53 tempo osservato: Sereno Sereno 37 32 1012 vento: Nord S 27.8
30 Agosto 2026 13:53 tempo osservato: Sereno Sereno 36 34 1012 vento: Nord S 25.9
30 Agosto 2026 12:53 tempo osservato: Sereno Sereno 34 38 1013 vento: Nord S 38.8
30 Agosto 2026 11:53 tempo osservato: Sereno Sereno 33 41 1014 vento: Nord S 25.9
30 Agosto 2026 10:53 tempo osservato: Sereno Sereno 30 45 1014 vento: Nord S 22.2
30 Agosto 2026 09:53 tempo osservato: Sereno Sereno 28 51 1013 vento: Nord S 24
30 Agosto 2026 08:53 tempo osservato: Sereno Sereno 26 57 1014 vento: Nord S 22.2
30 Agosto 2026 07:53 tempo osservato: Sereno Sereno 24 60 1014 vento: Nord S 18.5
30 Agosto 2026 06:53 tempo osservato: Sereno Sereno 24 60 1014 vento: Nord S 18.5
30 Agosto 2026 05:53 tempo osservato: Sereno Sereno 24 60 1014 vento: Nord S 24
30 Agosto 2026 04:53 tempo osservato: Sereno Sereno 24 60 1014 vento: Nord S 22.2
30 Agosto 2026 03:53 tempo osservato: Sereno Sereno 24 60 1014 vento: Nord S 18.5
30 Agosto 2026 02:53 tempo osservato: Sereno Sereno 25 57 1014 vento: Nord S 22.2
30 Agosto 2026 01:53 tempo osservato: Sereno Sereno 25 57 1014 vento: Nord S 14.8